DW9643 Weather Reports


Display with metric or nautical units.
time (UTC)temp
F
wind
direction
speed
MPH
gust
MPH
rain 1hr
in
rain 24hr
in
rain mn
in
humidity
%
barometer
mb
20260505093112 64 0 1.0 10.0 0.00 0.00 0.00 63 1010.4
20260505091603 64 226 1.0 11.0 0.00 0.00 0.00 63 1010.1
20260505084559 64 203 5.0 9.0 0.00 0.00 0.00 61 1009.3
20260505083100 64 195 4.0 11.0 0.00 0.00 0.00 61 1009.1
20260505081603 64 197 6.0 14.0 0.00 0.00 0.00 60 1008.8
20260505080058 65 203 7.0 16.0 0.00 0.00 0.00 60 1008.5
20260505074610 65 219 7.0 15.0 0.00 0.00 0.00 59 1008.6
20260505073107 65 201 7.0 14.0 0.00 0.00 0.00 59 1008.5
20260505071558 65 211 7.0 16.0 0.00 0.00 0.00 59 1008.3
20260505070100 65 186 7.0 16.0 0.00 0.00 0.00 58 1008.5
20260505064559 66 182 6.0 14.0 0.00 0.00 0.00 58 1008.6
20260505063100 66 194 6.0 16.0 0.00 0.00 0.00 57 1008.5
20260505061625 66 188 7.0 14.0 0.00 0.00 0.00 58 1008.4
20260505054625 66 196 8.0 15.0 0.00 0.00 0.00 57 1007.9
20260505053059 66 186 6.0 14.0 0.00 0.00 0.00 58 1007.9
20260505051559 66 202 7.0 15.0 0.00 0.00 0.00 57 1008.0
20260505041602 67 214 5.0 13.0 0.00 0.00 0.00 57 1008.7
20260505034600 67 209 6.0 11.0 0.00 0.00 0.00 58 1008.7
20260505033100 67 199 4.0 11.0 0.00 0.00 0.00 59 1008.8
20260505031615 67 189 3.0 9.0 0.00 0.00 0.00 59 1008.5
20260505024611 67 183 7.0 11.0 0.00 0.00 0.00 58 1008.1
20260505023101 67 163 6.0 11.0 0.00 0.00 0.00 58 1008.0
20260505021613 68 176 6.0 12.0 0.00 0.00 0.00 59 1008.0
20260505020100 68 176 6.0 12.0 0.00 0.00 0.00 58 1007.6
20260505014559 68 188 7.0 11.0 0.00 0.00 0.00 57 1007.2
20260505013057 68 184 5.0 9.0 0.00 0.00 0.00 58 1007.2
20260505011558 69 183 4.0 8.0 0.00 0.00 0.00 57 1007.1
20260505010057 69 192 3.0 8.0 0.00 0.00 0.00 56 1007.1
20260505004605 70 178 4.0 10.0 0.00 0.00 0.00 55 1007.0
20260505003100 71 186 6.0 13.0 0.00 0.00 0.00 55 1007.0
20260505001600 72 182 6.0 11.0 0.00 0.00 0.00 52 1007.2
20260505000058 72 210 8.0 14.0 0.00 0.00 0.00 51 1007.4
20260504234558 73 228 7.0 15.0 0.00 0.00 0.00 52 1007.5
20260504233102 73 179 6.0 13.0 0.00 0.00 0.00 48 1007.7
20260504231557 74 182 5.0 13.0 0.00 0.00 0.00 46 1007.9
20260504230101 74 219 4.0 14.0 0.00 0.00 0.00 48 1008.1
20260504224559 75 193 9.0 23.0 0.00 0.00 0.00 47 1008.2
20260504223103 75 181 10.0 17.0 0.00 0.00 0.00 46 1008.1
20260504221608 75 199 5.0 13.0 0.00 0.00 0.00 44 1008.2
20260504220135 76 205 7.0 20.0 0.00 0.00 0.00 42 1008.2
20260504214558 76 201 6.0 23.0 0.00 0.00 0.00 46 1008.2
20260504213123 78 193 6.0 16.0 0.00 0.00 0.00 46 1008.1
20260504211559 77 251 5.0 12.0 0.00 0.00 0.00 46 1008.6
20260504204619 74 193 6.0 11.0 0.00 0.00 0.00 52 1008.6
20260504203100 75 194 6.0 12.0 0.00 0.00 0.00 48 1008.8
20260504201612 74 0 3.0 11.0 0.00 0.00 0.00 51 1009.1
20260504200109 73 204 3.0 14.0 0.00 0.00 0.00 50 1009.5
20260504194559 73 217 6.0 16.0 0.00 0.00 0.00 49 1009.8
20260504193103 73 198 4.0 12.0 0.00 0.00 0.00 52 1009.9
20260504191559 73 252 2.0 15.0 0.00 0.00 0.00 53 1010.1
20260504190100 73 213 1.0 8.0 0.00 0.00 0.00 57 1010.2
20260504184601 72 195 3.0 12.0 0.00 0.00 0.00 63 1010.4
20260504183104 70 271 6.0 13.0 0.00 0.00 0.00 58 1010.5
20260504181614 70 163 7.0 20.0 0.00 0.00 0.00 60 1010.3
20260504174600 69 187 9.0 17.0 0.00 0.00 0.00 60 1010.2
20260504173101 67 194 11.0 19.0 0.00 0.00 0.00 61 1010.2
20260504171606 66 196 8.0 16.0 0.00 0.00 0.00 62 1010.3
20260504170104 66 205 6.0 15.0 0.00 0.00 0.00 63 1010.4
20260504160106 67 168 8.0 20.0 0.00 0.00 0.00 62 1011.1
20260504150104 63 199 4.0 12.0 0.00 0.00 0.00 65 1010.8
20260504110104 53 195 7.0 14.0 0.00 0.00 0.00 69 1011.3
20260504100104 51 195 6.0 9.0 0.00 0.00 0.00 69 1011.6